• Join FlightAware (Why Join?)
  • Login
  • US Flag 
09:54AM EDT


 

Airport Tracker/Info


-or-


 

Live Flight TrackerFlight Track Log ✈ N516QS ✈ 08-Oct-2013 ✈ KTEB - KBUR

Flight Track Log - Related Links

Times and Time Zones

All times are in EDT time to prevent confusion due to time zone crossing. See the N516QS flight status page for this flight to view local times or setup timezone preferences in your user account.

Time Position Orientation Groundspeed Altitude Reporting Facility
EDT Latitude Longitude Course Direction KTS MPH feet Rate Location/Type
09:45PM 40.9333 -74.1000 262° West 251 289 2,400  Level New York TRACON
09:47PM 40.9111 -74.2967 262° West 286 329 9,300 3,180 Climbing New York Center
09:48PM 40.8997 -74.3975 262° West 301 346 11,900 2,340 Climbing New York Center
09:49PM 40.8825 -74.5422 261° West 347 399 14,000 2,280 Climbing New York Center
09:50PM 40.8639 -74.6700 259° West 390 449 16,500 2,400 Climbing New York Center
09:51PM 40.8469 -74.8033 261° West 411 473 18,800 2,520 Climbing New York Center
09:52PM 40.8183 -74.9664 257° West 411 473 21,600 2,640 Climbing New York Center
09:53PM 40.7736 -75.1089 248° West 416 479 24,100 2,340 Climbing New York Center
09:54PM 40.7283 -75.2592 248° West 428 493 26,300 2,040 Climbing New York Center
09:55PM 40.6850 -75.4125 250° West 440 506 28,200 1,800 Climbing New York Center
09:56PM 40.6350 -75.5706 247° West 452 520 30,000 2,340 Climbing New York Center
09:57PM 40.5889 -75.7231 248° West 464 534 32,900 2,580 Climbing New York Center
09:58PM 40.5433 -75.8672 247° West 453 521 35,200 2,700 Climbing New York Center
09:59PM 40.4906 -76.0217 246° West 437 503 38,400 2,400 Climbing New York Center
10:00PM 40.4494 -76.1494 247° West 412 474 40,000 780 Climbing New York Center
10:01PM 40.4078 -76.2878 248° West 406 467 40,000  Level New York Center
10:02PM 40.3636 -76.4261 247° West 411 473 40,000 180 Level New York Center
10:03PM 40.3333 -76.5761 255° West 416 479 40,400 540 Climbing New York Center
10:04PM 40.3381 -76.7344 272° West 421 484 41,100 600 Climbing New York Center
10:05PM 40.3425 -76.8928 272° West 427 491 41,600 900 Climbing New York Center
10:06PM 40.3447 -77.0483 271° West 435 501 43,000 420 Climbing New York Center
10:08PM 40.3533 -77.3994 272° West 438 504 43,000  Level Cleveland Center
10:10PM 40.3586 -77.5622 272° West 447 514 43,000  Level Cleveland Center
10:11PM 40.3661 -77.7253 274° West 449 517 43,000  Level Cleveland Center
10:12PM 40.3717 -77.8875 273° West 449 517 43,000  Level Cleveland Center
10:13PM 40.3789 -78.0839 273° West 450 518 43,000  Level Cleveland Center
10:14PM 40.3850 -78.2494 273° West 453 521 43,000  Level Cleveland Center
10:15PM 40.3897 -78.4156 272° West 455 524 43,000  Level Cleveland Center
10:16PM 40.3944 -78.5808 272° West 455 524 43,000  Level Cleveland Center
10:17PM 40.4000 -78.7456 273° West 454 522 43,000  Level Cleveland Center
10:18PM 40.4042 -78.9114 272° West 455 524 43,000  Level Cleveland Center
10:19PM 40.4092 -79.0769 272° West 456 525 43,000  Level Cleveland Center
10:20PM 40.4128 -79.2428 272° West 457 526 43,000  Level Cleveland Center
10:21PM 40.4189 -79.4322 272° West 467 537 43,000  Level Cleveland Center
10:22PM 40.4233 -79.5981 272° West 458 527 43,000  Level Cleveland Center
10:23PM 40.4261 -79.7667 271° West 463 533 43,000  Level Cleveland Center
10:24PM 40.4300 -79.9347 272° West 464 534 43,000  Level Cleveland Center
10:25PM 40.4339 -80.1172 272° West 464 534 43,000  Level Cleveland Center
10:26PM 40.4367 -80.2861 271° West 466 536 43,000  Level Cleveland Center
10:27PM 40.4394 -80.4639 271° West 471 542 43,000  Level Cleveland Center
10:28PM 40.4417 -80.6339 271° West 468 539 43,000  Level Cleveland Center
10:29PM 40.4442 -80.8044 271° West 469 540 43,000  Level Cleveland Center
10:30PM 40.4456 -80.9767 271° West 472 543 43,000  Level Cleveland Center
10:31PM 40.4458 -81.1486 270° West 473 544 43,000  Level Cleveland Center
10:32PM 40.4475 -81.3189 271° West 469 540 43,000  Level Cleveland Center
10:33PM 40.4483 -81.5167 270° West 469 540 43,000  Level Cleveland Center
10:34PM 40.4492 -81.6903 270° West 471 542 43,000  Level Cleveland Center
10:35PM 40.4500 -81.7789 271° West 472 543 43,000  Level Indianapolis Center
10:36PM 40.4500 -81.9522 270° West 471 542 43,000  Level Indianapolis Center
10:37PM 40.4508 -82.1269 270° West 473 544 43,000  Level Indianapolis Center
10:38PM 40.4508 -82.3008 270° West 472 543 43,000  Level Indianapolis Center
10:39PM 40.4506 -82.4731 270° West 468 539 43,000  Level Indianapolis Center
10:40PM 40.4503 -82.6472 270° West 470 541 43,000  Level Indianapolis Center
10:41PM 40.4492 -82.8189 270° West 466 536 43,000  Level Indianapolis Center
10:42PM 40.4489 -82.9722 270° West 464 534 43,000  Level Indianapolis Center
10:43PM 40.4464 -83.1733 269° West 462 532 43,000  Level Indianapolis Center
10:44PM 40.4461 -83.3414 270° West 463 533 43,000  Level Indianapolis Center
10:45PM 40.4431 -83.5103 269° West 466 536 43,000  Level Indianapolis Center
10:46PM 40.4425 -83.6775 270° West 465 535 43,000  Level Indianapolis Center
10:47PM 40.4392 -83.8447 269° West 462 532 43,000  Level Indianapolis Center
10:48PM 40.4375 -84.0125 269° West 464 534 43,000  Level Indianapolis Center
10:49PM 40.4353 -84.1806 269° West 464 534 43,000  Level Indianapolis Center
10:50PM 40.4319 -84.3497 269° West 466 536 43,000  Level Indianapolis Center
10:51PM 40.4278 -84.5161 268° West 462 532 43,000  Level Indianapolis Center
10:52PM 40.4239 -84.7178 269° West 462 532 43,000  Level Indianapolis Center
10:53PM 40.4197 -84.8858 268° West 463 533 43,000  Level Indianapolis Center
10:54PM 40.4153 -85.0536 268° West 466 536 43,000  Level Indianapolis Center
10:55PM 40.4114 -85.2222 268° West 466 536 43,000  Level Indianapolis Center
10:55PM 40.4081 -85.3211 267° West 466 536 43,000  Level Chicago Center
10:56PM 40.4031 -85.4892 268° West 465 535 43,000  Level Chicago Center
10:57PM 40.3978 -85.6581 268° West 467 537 43,000  Level Chicago Center
10:58PM 40.3928 -85.8264 268° West 466 536 43,000  Level Chicago Center
10:59PM 40.3878 -85.9950 268° West 467 537 43,000  Level Chicago Center
11:00PM 40.3828 -86.1625 268° West 465 535 43,000  Level Chicago Center
11:01PM 40.3781 -86.3292 268° West 463 533 43,000  Level Chicago Center
11:02PM 40.3711 -86.5008 267° West 472 543 43,000  Level Chicago Center
11:04PM 40.3647 -86.6669 267° West 465 535 43,000  Level Chicago Center
11:05PM 40.3575 -86.8378 267° West 471 542 43,000  Level Chicago Center
11:06PM 40.3494 -87.0422 267° West 472 543 43,000  Level Chicago Center
11:07PM 40.3422 -87.2125 267° West 473 544 43,000  Level Chicago Center
11:08PM 40.3331 -87.3828 266° West 472 543 43,000  Level Chicago Center
11:09PM 40.3272 -87.5381 267° West 468 539 43,000  Level Chicago Center
11:10PM 40.3189 -87.7100 266° West 472 543 43,000  Level Chicago Center
11:11PM 40.3103 -87.8803 266° West 470 541 43,000  Level Chicago Center
11:12PM 40.3003 -88.0861 266° West 473 544 43,000  Level Chicago Center
11:13PM 40.2919 -88.2594 266° West 476 548 43,000  Level Chicago Center
11:14PM 40.2822 -88.4303 266° West 474 545 43,000  Level Chicago Center
11:15PM 40.2728 -88.5981 266° West 471 542 43,000  Level Chicago Center
11:16PM 40.2631 -88.7686 266° West 469 540 43,000  Level Chicago Center
11:17PM 40.2525 -88.9414 265° West 472 543 43,000  Level Chicago Center
11:18PM 40.2411 -89.1103 265° West 468 539 43,000  Level Chicago Center
11:19PM 40.2322 -89.2814 266° West 473 544 43,000  Level Chicago Center
11:20PM 40.2219 -89.4531 266° West 472 543 43,000  Level Chicago Center
11:21PM 40.2100 -89.6239 265° West 470 541 43,000  Level Chicago Center
11:22PM 40.1994 -89.7956 265° West 471 542 43,000  Level Chicago Center
11:23PM 40.1872 -89.9656 265° West 469 540 43,000  Level Chicago Center
11:23PM 40.1831 -90.0350 266° West 469 540 43,000  Level Kansas City Center
11:24PM 40.1761 -90.1358 265° West 471 542 43,000  Level Chicago Center
11:25PM 40.1639 -90.3064 265° West 472 543 43,000  Level Chicago Center
11:26PM 40.1522 -90.4761 265° West 470 541 43,000  Level Chicago Center
11:27PM 40.1394 -90.6567 265° West 476 548 43,000  Level Chicago Center
11:28PM 40.1264 -90.8258 264° West 473 544 43,000  Level Chicago Center
11:29PM 40.1128 -90.9942 264° West 471 542 43,000  Level Chicago Center
11:29PM 40.1072 -91.0603 264° West 470 541 43,000  Level Kansas City Center
11:30PM 40.0956 -91.2289 265° West 470 541 43,000  Level Kansas City Center
11:31PM 40.0792 -91.4300 264° West 469 540 43,000  Level Kansas City Center
11:32PM 40.0656 -91.5975 264° West 468 539 43,000  Level Kansas City Center
11:33PM 40.0517 -91.7639 264° West 467 537 43,000  Level Kansas City Center
11:34PM 40.0392 -91.9325 265° West 467 537 43,000  Level Kansas City Center
11:35PM 40.0244 -92.0997 263° West 467 537 43,000  Level Kansas City Center
11:36PM 40.0089 -92.2678 263° West 468 539 43,000  Level Kansas City Center
11:37PM 39.9944 -92.4364 264° West 467 537 43,000  Level Kansas City Center
11:38PM 39.9783 -92.6053 263° West 467 537 43,000  Level Kansas City Center
11:39PM 39.9622 -92.7728 263° West 465 535 43,000  Level Kansas City Center
11:40PM 39.9464 -92.9406 263° West 466 536 43,000  Level Kansas City Center
11:42PM 39.9314 -93.1072 263° West 467 537 43,000  Level Kansas City Center
11:43PM 39.9156 -93.2753 263° West 468 539 43,000  Level Kansas City Center
11:44PM 39.8997 -93.4408 263° West 465 535 43,000  Level Kansas City Center
11:45PM 39.8825 -93.6081 262° West 467 537 43,000  Level Kansas City Center
11:46PM 39.8661 -93.7747 263° West 469 540 43,000  Level Kansas City Center
11:47PM 39.8464 -93.9739 263° West 467 537 43,000  Level Kansas City Center
11:48PM 39.8289 -94.1450 262° West 464 534 43,000  Level Kansas City Center
11:49PM 39.8125 -94.3033 262° West 463 533 43,000  Level Kansas City Center
11:50PM 39.7961 -94.4628 262° West 465 535 43,000  Level Kansas City Center
11:51PM 39.7764 -94.6475 262° West 464 534 43,000  Level Kansas City Center
11:52PM 39.7592 -94.8061 262° West 465 535 43,000  Level Kansas City Center
11:53PM 39.7414 -94.9658 262° West 468 539 43,000  Level Kansas City Center
11:54PM 39.7203 -95.1508 262° West 467 537 43,000  Level Kansas City Center
11:55PM 39.7028 -95.3081 262° West 465 535 43,000  Level Kansas City Center
11:56PM 39.6847 -95.4644 262° West 462 532 43,000  Level Kansas City Center
11:57PM 39.6636 -95.6464 261° West 460 529 43,000  Level Kansas City Center
11:58PM 39.6456 -95.8033 262° West 461 531 43,000  Level Kansas City Center
11:59PM 39.6258 -95.9614 261° West 461 531 43,000  Level Kansas City Center
12:00AM 39.6036 -96.1436 261° West 462 532 43,000  Level Kansas City Center
12:01AM 39.5842 -96.3025 261° West 466 536 43,000  Level Kansas City Center
12:02AM 39.5650 -96.4589 261° West 462 532 43,000  Level Kansas City Center
12:03AM 39.5417 -96.6406 261° West 458 527 43,000  Level Kansas City Center
12:04AM 39.5236 -96.7961 261° West 456 525 43,000  Level Kansas City Center
12:05AM 39.5014 -96.9517 260° West 460 529 43,000  Level Kansas City Center
12:06AM 39.4772 -97.1333 260° West 460 529 43,000  Level Kansas City Center
12:07AM 39.4569 -97.2883 260° West 458 527 43,000  Level Kansas City Center
12:08AM 39.4364 -97.4422 260° West 456 525 43,000  Level Kansas City Center
12:09AM 39.4147 -97.6014 260° West 459 528 43,000  Level Kansas City Center
12:10AM 39.3883 -97.7958 260° West 456 525 43,000  Level Kansas City Center
12:11AM 39.3703 -97.9297 260° West 449 517 43,000  Level Kansas City Center
12:12AM 39.3469 -98.1061 260° West 446 513 43,000  Level Kansas City Center
12:13AM 39.3206 -98.2747 259° West 456 525 43,000  Level Kansas City Center
12:14AM 39.2986 -98.4353 260° West 455 524 43,000  Level Kansas City Center
12:15AM 39.2769 -98.5939 260° West 453 521 43,000  Level Kansas City Center
12:16AM 39.2553 -98.7497 260° West 458 527 43,000  Level Kansas City Center
12:17AM 39.2347 -98.8953 260° West 459 528 43,000  Level Kansas City Center
12:18AM 39.2103 -99.0564 259° West 459 528 43,000  Level Kansas City Center
12:19AM 39.1806 -99.2472 259° West 454 522 43,000  Level Kansas City Center
12:20AM 39.1567 -99.4050 259° West 452 520 43,000  Level Kansas City Center
12:21AM 39.1331 -99.5633 259° West 451 519 43,000  Level Kansas City Center
12:22AM 39.1086 -99.7164 258° West 450 518 43,000  Level Kansas City Center
12:23AM 39.0856 -99.8669 259° West 449 517 43,000  Level Kansas City Center
12:24AM 39.0581 -100.0431 259° West 449 517 43,000  Level Kansas City Center
12:25AM 39.0344 -100.1911 258° West 446 513 43,000  Level Kansas City Center
12:26AM 39.0108 -100.3411 259° West 447 514 43,000  Level Kansas City Center
12:27AM 38.9819 -100.5150 258° West 447 514 43,000  Level Kansas City Center
12:28AM 38.9572 -100.6633 258° West 446 513 43,000  Level Kansas City Center
12:29AM 38.9331 -100.8122 258° West 447 514 43,000  Level Kansas City Center
12:30AM 38.9044 -100.9847 258° West 444 511 43,000  Level Kansas City Center
12:31AM 38.8725 -101.1781 258° West 441 507 43,000  Level Denver Center
12:32AM 38.8475 -101.3256 258° West 443 510 43,000  Level Denver Center
12:33AM 38.8178 -101.4989 258° West 447 514 43,000  Level Denver Center
12:34AM 38.7914 -101.6503 257° West 453 521 43,000  Level Denver Center
12:35AM 38.7650 -101.7997 257° West 451 519 43,000  Level Denver Center
12:36AM 38.7356 -101.9719 258° West 448 516 43,000  Level Denver Center
12:37AM 38.7097 -102.1192 257° West 445 512 43,000  Level Denver Center
12:38AM 38.6828 -102.2700 257° West 452 520 43,000  Level Denver Center
12:39AM 38.6508 -102.4436 257° West 452 520 43,000  Level Denver Center
12:40AM 38.6247 -102.5936 257° West 453 521 43,000  Level Denver Center
12:41AM 38.5972 -102.7436 257° West 453 521 43,000  Level Denver Center
12:42AM 38.5672 -102.9025 256° West 451 519 43,000  Level Denver Center
12:43AM 38.5375 -103.0669 257° West 452 520 43,000  Level Denver Center
12:44AM 38.5092 -103.2158 256° West 452 520 43,000  Level Denver Center
12:45AM 38.4822 -103.3631 257° West 448 516 43,000  Level Denver Center
12:47AM 38.4500 -103.5221 256° West  Level FlightAware Approximate
12:47AM 38.4197 -103.6892 256° West 446 513 43,000  Level Denver Center
12:48AM 38.3919 -103.8350 256° West 444 511 43,000  Level Denver Center
12:49AM 38.3633 -103.9794 256° West 442 509 43,000  Level Denver Center
12:50AM 38.3333 -104.1333 256° West 441 507 43,000  Level Denver Center
12:51AM 38.3017 -104.2931 256° West 443 510 43,000  Level Denver Center
12:52AM 38.2728 -104.4403 256° West 448 516 43,000  Level Denver Center
12:53AM 38.2378 -104.6144 256° West 455 524 43,000  Level Denver Center
12:54AM 38.2086 -104.7606 256° West 450 518 43,000 -60 Level Denver Center
12:55AM 38.1792 -104.9056 256° West 446 513 42,900  Descending Denver Center
12:56AM 38.1458 -105.0656 255° West 425 489 43,000  Climbing Denver Center
12:57AM 38.1183 -105.2017 256° West 418 481 43,000  Level Denver Center
12:58AM 38.0886 -105.3436 255° West 431 496 43,000  Level Denver Center
01:00AM 38.0589 -105.4817 255° West 428 493 43,000  Level Denver Center
01:01AM 38.0261 -105.6431 256° West 424 488 43,000  Level Denver Center
01:02AM 37.9956 -105.7881 255° West 439 505 43,000  Level Denver Center
01:03AM 37.9639 -105.9364 255° West 453 521 43,000  Level Denver Center
01:04AM 37.9267 -106.1094 255° West 458 527 43,000  Level Denver Center
01:05AM 37.8950 -106.2589 255° West 458 527 43,100  Climbing Denver Center
01:06AM 37.8619 -106.4033 254° West 451 519 43,000 -60 Descending Denver Center
01:08AM 37.7964 -106.7036 255° West 429 494 43,000  Level Denver Center
01:09AM 37.7661 -106.8414 255° West 427 491 43,000  Level Denver Center
01:10AM 37.7350 -106.9808 254° West 430 495 43,000  Level Denver Center
01:11AM 37.6983 -107.1472 254° West 440 506 43,000  Level Denver Center
01:12AM 37.6661 -107.2853 254° West 431 496 43,000  Level Denver Center
01:13AM 37.6356 -107.4242 255° West 430 495 43,000  Level Denver Center
01:14AM 37.6025 -107.5633 253° West 432 497 43,000  Level Denver Center
01:15AM 37.5658 -107.7253 254° West 432 497 43,000  Level Denver Center
01:16AM 37.5342 -107.8622 254° West 427 491 43,000  Level Denver Center
01:17AM 37.5022 -108.0003 254° West 429 494 43,000  Level Denver Center
01:18AM 37.4644 -108.1606 254° West 429 494 43,000  Level Denver Center
01:20AM 37.4003 -108.4333 254° West 426 490 43,000  Level Denver Center
01:21AM 37.3617 -108.5897 253° West 421 484 43,000  Level Denver Center
01:22AM 37.3294 -108.7264 254° West 424 488 43,000  Level Denver Center
01:23AM 37.2961 -108.8614 253° West 426 490 43,000  Level Denver Center
01:24AM 37.2631 -109.0000 253° West 433 498 43,000  Level Denver Center
01:25AM 37.2250 -109.1617 254° West 434 499 43,000  Level Denver Center
01:26AM 37.1911 -109.2983 253° West 432 497 43,000  Level Denver Center
01:27AM 37.1575 -109.4322 253° West 426 490 43,000  Level Denver Center
01:28AM 37.1172 -109.5919 252° West 429 494 43,000  Level Denver Center
01:29AM 37.0833 -109.7281 253° West 430 495 43,000  Level Denver Center
01:30AM 37.0494 -109.8603 252° West 423 487 43,000  Level Denver Center
01:31AM 37.0100 -110.0192 253° West 427 491 43,000  Level Denver Center
01:32AM 36.9750 -110.1553 252° West 430 495 43,000  Level Denver Center
01:33AM 36.9425 -110.2797 252° West 430 495 43,000  Level Denver Center
01:34AM 36.9069 -110.4197 252° West 425 489 43,000  Level Denver Center
01:35AM 36.8708 -110.5583 252° West 419 482 43,000  Level Denver Center
01:36AM 36.8344 -110.6972 252° West 422 486 43,000  Level Denver Center
01:37AM 36.7975 -110.8397 252° West 431 496 43,000  Level Denver Center
01:38AM 36.7603 -110.9811 252° West 431 496 43,000  Level Denver Center
01:39AM 36.7217 -111.1225 251° West 432 497 43,000  Level Denver Center
01:40AM 36.6850 -111.2614 252° West 425 489 43,000  Level Denver Center
01:41AM 36.6503 -111.3975 252° West 418 481 43,000  Level Denver Center
01:42AM 36.6050 -111.5619 251° West 418 481 43,000  Level Denver Center
01:43AM 36.5672 -111.6986 251° West 419 482 43,000  Level Los Angeles Center
01:44AM 36.5281 -111.8456 252° West 444 511 43,000  Level Los Angeles Center
01:45AM 36.4894 -111.9844 251° West 427 491 43,000  Level Los Angeles Center
01:46AM 36.4533 -112.1175 251° West 410 472 43,000  Level Los Angeles Center
01:47AM 36.4164 -112.2533 251° West 414 476 43,000  Level Los Angeles Center
01:48AM 36.3789 -112.3878 251° West 414 476 43,000  Level Los Angeles Center
01:49AM 36.3408 -112.5264 251° West 421 484 43,000  Level Los Angeles Center
01:50AM 36.3014 -112.6644 251° West 424 488 43,000  Level Los Angeles Center
01:51AM 36.2633 -112.8011 251° West 421 484 43,000  Level Los Angeles Center
01:52AM 36.2239 -112.9381 250° West 423 487 43,000  Level Los Angeles Center
01:53AM 36.1861 -113.0731 251° West 417 480 43,000  Level Los Angeles Center
01:54AM 36.1469 -113.2081 250° West 416 479 43,000  Level Los Angeles Center
01:55AM 36.1058 -113.3539 251° West 420 483 43,000  Level Los Angeles Center
01:56AM 36.0656 -113.4908 250° West 423 487 43,000  Level Los Angeles Center
01:57AM 36.0261 -113.6278 250° West 425 489 43,000  Level Los Angeles Center
01:58AM 35.9861 -113.7658 250° West 428 493 43,000  Level Los Angeles Center
01:59AM 35.9472 -113.9025 251° West 422 486 43,000  Level Los Angeles Center
02:00AM 35.9056 -114.0350 249° West 415 478 43,000  Level Los Angeles Center
02:01AM 35.8583 -114.1975 250° West 418 481 43,000  Level Los Angeles Center
02:02AM 35.8103 -114.3594 250° West 419 482 43,000  Level Los Angeles Center
02:03AM 35.7689 -114.4942 249° West 419 482 43,000  Level Los Angeles Center
02:04AM 35.7283 -114.6303 250° West 422 486 43,000  Level Los Angeles Center
02:05AM 35.6875 -114.7661 250° West 422 486 43,000  Level Los Angeles Center
02:06AM 35.6478 -114.9019 250° West 421 484 43,000  Level Los Angeles Center
02:07AM 35.6058 -115.0372 249° West 421 484 43,000  Level Los Angeles Center
02:08AM 35.5656 -115.1708 250° West 416 479 43,000  Level Los Angeles Center
02:09AM 35.5228 -115.3064 249° West 422 486 43,000 -240 Level Los Angeles Center
02:10AM 35.4811 -115.4422 249° West 423 487 42,600 -960 Descending Los Angeles Center
02:11AM 35.4422 -115.5697 250° West 424 488 41,100 -1,500 Descending Los Angeles Center
02:12AM 35.4000 -115.7022 249° West 420 483 39,600 -1,560 Descending Los Angeles Center
02:13AM 35.3575 -115.8375 249° West 424 488 38,000 -1,560 Descending Los Angeles Center
02:14AM 35.3175 -115.9678 249° West 414 476 36,500 -1,500 Descending Los Angeles Center
02:15AM 35.2753 -116.0983 248° West 412 474 35,000 -1,680 Descending Los Angeles Center
02:16AM 35.2256 -116.2575 249° West 417 480 33,200 -1,680 Descending Los Angeles Center
02:17AM 35.1831 -116.3889 248° West 416 479 31,700 -1,500 Descending Los Angeles Center
02:18AM 35.1378 -116.5278 248° West 437 503 30,200 -1,500 Descending Los Angeles Center
02:19AM 35.0933 -116.6653 248° West 437 503 28,700 -1,560 Descending Los Angeles Center
02:20AM 35.0503 -116.7992 249° West 428 493 27,100 -1,620 Descending Los Angeles Center
02:21AM 35.0086 -116.9331 249° West 423 487 25,500 -1,620 Descending Los Angeles Center
02:22AM 34.9683 -117.0647 250° West 417 480 23,900 -1,620 Descending Los Angeles Center
02:23AM 34.9281 -117.1964 250° West 414 476 22,300 -1,620 Descending Los Angeles Center
02:24AM 34.8883 -117.3242 249° West 406 467 20,700 -1,560 Descending Los Angeles Center
02:26AM 34.8489 -117.4497 249° West 398 458 19,200 -1,560 Descending Los Angeles Center
02:27AM 34.8097 -117.5750 249° West 395 455 17,600 -1,560 Descending Los Angeles Center
02:28AM 34.7742 -117.6953 250° West 375 432 16,100 -1,440 Descending Los Angeles Center
02:29AM 34.7400 -117.8069 250° West 355 409 14,800 -1,380 Descending Los Angeles Center
02:30AM 34.7042 -117.9189 249° West 354 407 13,400 -1,260 Descending Los Angeles Center
02:32AM 34.6119 -118.1799 246° West  Level FlightAware Approximate
02:34AM 34.5667 -118.3333 90° East 257 296 8,300  Level Southern California TRACON
02:34AM 34.5667 -118.3833 270° West 261 300 8,000 -300 Descending Southern California TRACON
02:36AM 34.5333 -118.5000 251° West 266 306 7,800 -720 Descending Southern California TRACON
02:37AM 34.4833 -118.5333 209° Southwest 261 300 6,600 -960 Descending Southern California TRACON
02:38AM 34.4333 -118.5667 209° Southwest 221 254 6,000 -780 Descending Southern California TRACON
02:39AM 34.2000 -118.3500 90° East  Level FlightAware Approximate
02:39AM 34.3667 -118.6000 202° Southwest 211 243 5,000  Level Southern California TRACON
02:40AM 34.3167 -118.6333 209° Southwest 212 244 5,000  Level Southern California TRACON
02:41AM 34.2667 -118.6667 209° Southwest 183 211 5,000 -420 Level Southern California TRACON
02:42AM 34.2167 -118.6500 165° South 185 213 4,200 -540 Descending Southern California TRACON
02:43AM 34.2000 -118.6000 112° Southeast 183 211 4,000 -240 Descending Southern California TRACON
02:43AM 34.2000 -118.5500 90° East 164 189 3,800 -600 Descending Southern California TRACON
02:44AM 34.2000 -118.5000 90° East 160 184 3,000 -900 Descending Southern California TRACON
02:45AM 34.2000 -118.4500 90° East 160 184 2,200 -840 Descending Southern California TRACON
02:46AM 34.2000 -118.4000 90° East 125 144 1,400 -840 Descending Southern California TRACON